Central Park, NY

6:39 PM EDT on April 29, 2017 (GMT -0400)
Central Park

Weather History for KNYC - March, 2013

Change the Weather History Date:

Wednesday, March 20, 2013

  Actual Average Record
Temperature  
Mean Temperature 39 °F 44 °F  
Max Temperature 45 °F 51 °F 83 °F (1945)
Min Temperature 32 °F 36 °F 11 °F (1885)
Degree Days  
Heating Degree Days 26 21  
Month to date heating degree days 516 486  
Since 1 July heating degree days 3889 4008  
Cooling Degree Days 0 0  
Month to date cooling degree days 0 0  
Year to date cooling degree days 0 0  
Moisture  
Dew Point 17 °F    
Average Humidity 46    
Maximum Humidity 64    
Minimum Humidity 28    
Precipitation  
Precipitation T in 0.15 in 1.93 in (1913)
Month to date precipitation 2.65 2.68  
Year to date precipitation 9.66 9.42  
Snow  
Snow T in 0.10 in 4.70 in (1958)
Month to date snowfall 7.3 3.1  
Since 1 July snowfall 26.1 24.4  
Snow Depth 0.00 in    
Sea Level Pressure  
Sea Level Pressure 29.83 in    
Wind  
Wind Speed 8 mph (WNW)    
Max Wind Speed 20 mph    
Max Gust Speed 28 mph    
Visibility 10 miles    
Events      
T = Trace of Precipitation, MM = Missing Value Source: NWS Daily Summary

Daily Weather History Graph

Daily Weather History Graph

Search for Another Location

Airport or City:

Trip Planner

Search our weather history database for the weather conditions in past years. The results will help you decide how hot, cold, wet, or windy it might be!

Date:

Astronomy

Mar. 20, 2013 Rise Set
Actual Time 6:58 AM EDT 7:08 PM EDT
Civil Twilight 6:31 AM EDT 7:35 PM EDT
Nautical Twilight 5:59 AM EDT 8:07 PM EDT
Astronomical Twilight 5:27 AM EDT 8:40 PM EDT
Moon 12:39 PM EDT (3/20) 2:38 AM EDT (3/20)
Length of Visible Light 13h 04m
Length of Day
12h 09m
First Quarter, 59% of the Moon is Illuminated
Mar 20
First Quarter
Mar 27
Full
Apr 3
Last Quarter
Apr 10
New
Apr 18
First Quarter

Hourly Weather History & Observations

Time (EDT) Temp. Windchill Dew Point Humidity Pressure Visibility Wind Dir Wind Speed Gust Speed Precip Events Conditions
12:51 AM 36.0 °F 32.1 °F 24.1 °F 62% 29.82 in 10.0 mi Variable 4.6 mph - N/A   Clear
1:51 AM 36.0 °F 30.3 °F 23.0 °F 59% 29.83 in 10.0 mi Variable 6.9 mph - N/A   Overcast
2:51 AM 35.1 °F 27.4 °F 15.1 °F 44% 29.85 in 10.0 mi WNW 10.4 mph 17.3 mph N/A   Partly Cloudy
3:51 AM 34.0 °F 27.2 °F 17.1 °F 50% 29.86 in 10.0 mi WNW 8.1 mph - N/A   Clear
4:51 AM 33.1 °F 26.1 °F 17.1 °F 52% 29.86 in 10.0 mi West 8.1 mph 18.4 mph N/A   Clear
5:51 AM 33.1 °F - 17.1 °F 52% 29.87 in 10.0 mi North - - N/A   Clear
6:51 AM 33.1 °F - 18.0 °F 54% 29.88 in 10.0 mi Calm Calm - N/A   Mostly Cloudy
7:51 AM 33.1 °F 25.5 °F 17.1 °F 52% 29.88 in 10.0 mi West 9.2 mph 20.7 mph N/A   Mostly Cloudy
8:51 AM 34.0 °F 26.6 °F 16.0 °F 48% 29.87 in 10.0 mi West 9.2 mph 21.9 mph N/A   Clear
9:51 AM 36.0 °F 27.5 °F 16.0 °F 44% 29.87 in 10.0 mi WNW 12.7 mph 27.6 mph N/A   Scattered Clouds
10:51 AM 37.0 °F 28.5 °F 16.0 °F 42% 29.88 in 10.0 mi West 13.8 mph 25.3 mph N/A   Mostly Cloudy
11:51 AM 37.9 °F 30.0 °F 16.0 °F 41% 29.86 in 10.0 mi WNW 12.7 mph 25.3 mph N/A   Partly Cloudy
12:51 PM 41.0 °F 36.4 °F 17.1 °F 38% 29.85 in 10.0 mi WNW 6.9 mph 18.4 mph N/A   Partly Cloudy
1:51 PM 42.1 °F 36.1 °F 17.1 °F 37% 29.83 in 10.0 mi WNW 10.4 mph 17.3 mph N/A   Clear
2:51 PM 44.1 °F - 17.1 °F 34% 29.79 in 10.0 mi North - - N/A   Clear
3:51 PM 44.1 °F 39.5 °F 16.0 °F 32% 29.79 in 10.0 mi WNW 8.1 mph 16.1 mph N/A   Overcast
4:51 PM 43.0 °F 36.4 °F 15.1 °F 32% 29.79 in 10.0 mi West 12.7 mph 20.7 mph N/A   Overcast
5:51 PM 44.1 °F 40.1 °F 16.0 °F 32% 29.79 in 10.0 mi Variable 6.9 mph - N/A   Mostly Cloudy
6:51 PM 44.1 °F 40.8 °F 14.0 °F 30% 29.79 in 10.0 mi Variable 5.8 mph - N/A   Mostly Cloudy
7:51 PM 43.0 °F 39.5 °F 14.0 °F 31% 29.79 in 10.0 mi WNW 5.8 mph - N/A   Clear
8:51 PM 41.0 °F 39.0 °F 16.0 °F 36% 29.81 in 10.0 mi NW 3.5 mph - N/A   Scattered Clouds
9:51 PM 41.0 °F 38.0 °F 17.1 °F 38% 29.81 in 10.0 mi Variable 4.6 mph - N/A   Overcast
10:51 PM 41.0 °F - 17.1 °F 38% 29.82 in 10.0 mi North - - N/A   Overcast
11:51 PM 37.9 °F 32.7 °F 19.9 °F 48% 29.83 in 10.0 mi Variable 6.9 mph - N/A   Overcast